UAE3YM OMDB-EGSS

Flight info

Callsign UAE3YM
Flight time N/A
Altitude 34000
Route RIDAP DCT TUMAK L602 TASMI DCT SEPTU DCT VUSEB DCT ODALI UL852 NEGEM DCT ANASA DCT DONIV DCT BABIT DCT SOGMO DCT SASAL DCT RENKA DCT INBED DCT BOMBI DCT ADKUV DCT LENDO DCT SOGRI DCT HELEN L179 SASKI L608 SUMUM Y6 TOSVA
Aircraft B77W/H-SDE1E2E3FGHIJ2J3J4J5M1RWXY/LB1D1

Departure

Time 2026-04-23 09:51
Airport Dubai International Airport (OMDB)

Arrival

Time N/A
Airport London Stansted Airport (EGSS)
Time Latitude Longitude Altitude Speed Heading
2026-04-23 08:34 25.24476 55.37143 48 ft 0 kts 212°
2026-04-23 09:34 25.24477 55.37143 48 ft 1 kts 212°
2026-04-23 09:35 25.24486 55.37149 48 ft 2 kts 206°
2026-04-23 09:35 25.24498 55.37155 48 ft 2 kts 196°
2026-04-23 09:35 25.24511 55.37158 48 ft 2 kts 188°
2026-04-23 09:35 25.24525 55.37159 48 ft 2 kts 180°
2026-04-23 09:36 25.24538 55.37159 49 ft 2 kts 172°
2026-04-23 09:36 25.24550 55.37156 49 ft 2 kts 165°
2026-04-23 09:36 25.24565 55.37151 49 ft 2 kts 156°
2026-04-23 09:36 25.24577 55.37144 49 ft 2 kts 148°
2026-04-23 09:37 25.24589 55.37133 49 ft 2 kts 139°
2026-04-23 09:37 25.24599 55.37123 49 ft 2 kts 130°
2026-04-23 09:37 25.24608 55.37110 49 ft 1 kts 121°
2026-04-23 09:37 25.24608 55.37108 49 ft 0 kts 121°
2026-04-23 09:42 25.24606 55.37112 49 ft 3 kts 121°
2026-04-23 09:42 25.24581 55.37157 49 ft 10 kts 121°
2026-04-23 09:42 25.24545 55.37223 52 ft 14 kts 121°
2026-04-23 09:43 25.24518 55.37271 54 ft 15 kts 121°
2026-04-23 09:43 25.24474 55.37352 56 ft 19 kts 121°
2026-04-23 09:43 25.24442 55.37424 54 ft 0 kts 108°
2026-04-23 09:43 25.24442 55.37425 54 ft 0 kts 108°
2026-04-23 09:44 25.24441 55.37427 53 ft 0 kts 107°
2026-04-23 09:44 25.24439 55.37435 53 ft 1 kts 106°
2026-04-23 09:44 25.24434 55.37454 53 ft 3 kts 103°
2026-04-23 09:45 25.24429 55.37483 52 ft 4 kts 98°
2026-04-23 09:45 25.24426 55.37515 52 ft 4 kts 94°
2026-04-23 09:45 25.24425 55.37523 52 ft 0 kts 92°
2026-04-23 09:45 25.24425 55.37524 52 ft 0 kts 92°
2026-04-23 09:46 25.24425 55.37570 52 ft 12 kts 93°
2026-04-23 09:46 25.24390 55.37684 51 ft 16 kts 120°
2026-04-23 09:46 25.24358 55.37745 53 ft 8 kts 120°
2026-04-23 09:46 25.24338 55.37788 55 ft 3 kts 101°
2026-04-23 09:47 25.24339 55.37806 56 ft 1 kts 73°
2026-04-23 09:47 25.24343 55.37817 57 ft 1 kts 63°
2026-04-23 09:47 25.24346 55.37821 57 ft 0 kts 51°
2026-04-23 09:47 25.24348 55.37824 57 ft 3 kts 46°
2026-04-23 09:48 25.24423 55.37884 58 ft 22 kts 34°
2026-04-23 09:48 25.24541 55.37975 57 ft 20 kts 35°
2026-04-23 09:48 25.24599 55.38016 58 ft 0 kts 32°
2026-04-23 09:48 25.24604 55.38020 58 ft 4 kts 33°
2026-04-23 09:49 25.24645 55.38050 58 ft 13 kts 32°
2026-04-23 09:49 25.24721 55.38099 58 ft 14 kts 14°
2026-04-23 09:49 25.24786 55.38067 58 ft 14 kts 305°
2026-04-23 09:49 25.24876 55.37900 56 ft 54 kts 301°
2026-04-23 09:50 25.25087 55.37522 53 ft 101 kts 301°
2026-04-23 09:50 25.25368 55.37014 51 ft 139 kts 301°
2026-04-23 09:50 25.25939 55.35986 55 ft 186 kts 301°
2026-04-23 09:51 25.27290 55.33422 1168 ft 202 kts 301°
2026-04-23 09:51 25.27841 55.32432 1558 ft 206 kts 303°
2026-04-23 09:51 25.28589 55.31105 1761 ft 223 kts 297°
2026-04-23 09:51 25.29044 55.29351 1976 ft 243 kts 281°
2026-04-23 09:52 25.29641 55.25465 2878 ft 263 kts 280°
2026-04-23 09:52 25.30007 55.23042 3673 ft 265 kts 279°
2026-04-23 09:52 25.30314 55.21012 4314 ft 267 kts 279°
2026-04-23 09:53 25.30630 55.18915 4956 ft 269 kts 279°
2026-04-23 09:53 25.30855 55.17425 5463 ft 268 kts 278°
2026-04-23 09:53 25.31203 55.15115 6187 ft 270 kts 278°
2026-04-23 09:54 25.31900 55.10476 7480 ft 277 kts 278°
2026-04-23 09:54 25.32202 55.08461 8062 ft 279 kts 277°
2026-04-23 09:54 25.32597 55.05824 8729 ft 283 kts 277°
2026-04-23 09:54 25.32963 55.03381 9355 ft 287 kts 277°
2026-04-23 09:55 25.33254 55.01432 9867 ft 288 kts 277°
2026-04-23 09:55 25.33608 54.99059 10335 ft 297 kts 277°
2026-04-23 09:55 25.34102 54.95731 10666 ft 320 kts 277°
2026-04-23 09:55 25.34513 54.92972 10968 ft 337 kts 277°
2026-04-23 09:56 25.35879 54.87119 11583 ft 372 kts 285°
2026-04-23 09:56 25.36741 54.84135 12096 ft 380 kts 285°